Weather History for KMEI - April, 2013

Change the Weather History Date:

Sunday, April 7, 2013

  Actual Average Record
Temperature  
Mean Temperature 59 °F 60 °F  
Max Temperature 76 °F 74 °F 88 °F (1954)
Min Temperature 42 °F 47 °F 29 °F (1950)
Degree Days  
Heating Degree Days 6 6  
Month to date heating degree days 58 45  
Since 1 July heating degree days 2379 2449  
Cooling Degree Days 0 1  
Month to date cooling degree days 0 7  
Year to date cooling degree days 19 31  
Growing Degree Days 8 (Base 50)    
Moisture  
Dew Point 49 °F    
Average Humidity 72    
Maximum Humidity 100    
Minimum Humidity 43    
Precipitation  
Precipitation 0.00 in 0.17 in 5.78 in (1938)
Month to date precipitation 0.47 1.16  
Year to date precipitation 23.05 17.31  
Sea Level Pressure  
Sea Level Pressure 30.06 in    
Wind  
Wind Speed 5 mph (SSW)    
Max Wind Speed 16 mph    
Max Gust Speed 23 mph    
Visibility 9 miles    
Events Rain    
T = Trace of Precipitation, MM = Missing Value Source: NWS Daily Summary

Daily Weather History Graph

Daily Weather History Graph

Search for Another Location

Airport or City:

Trip Planner

Search our weather history database for the weather conditions in past years. The results will help you decide how hot, cold, wet, or windy it might be!

Date:

Astronomy

Apr. 07, 2013 Rise Set
Actual Time 6:35 AM CDT 7:19 PM CDT
Civil Twilight 6:10 AM CDT 7:44 PM CDT
Nautical Twilight 5:41 AM CDT 8:13 PM CDT
Astronomical Twilight 5:11 AM CDT 8:43 PM CDT
Moon 4:44 AM CDT (4/7) 4:58 PM CDT (4/7)
Length of Visible Light 13h 33m
Length of Day
12h 43m
Waning Crescent, 8% of the Moon is Illuminated
Apr 7
Waning Crescent
Apr 10
New
Apr 18
First Quarter
Apr 25
Full
May 2
Last Quarter

Hourly Weather History & Observations

Time (CDT) Temp. Dew Point Humidity Pressure Visibility Wind Dir Wind Speed Gust Speed Precip Events Conditions
12:58 AM 50.0 °F 46.9 °F 89% 30.08 in 10.0 mi SSW 8.1 mph - N/A   Clear
1:58 AM 51.1 °F 48.0 °F 89% 30.08 in 10.0 mi WSW 3.5 mph - N/A   Clear
2:58 AM 46.9 °F 46.0 °F 97% 30.07 in 10.0 mi South 3.5 mph - N/A   Clear
3:58 AM 46.0 °F 44.1 °F 93% 30.07 in 9.0 mi Calm Calm - N/A   Clear
4:58 AM 44.1 °F 44.1 °F 100% 30.07 in 8.0 mi Calm Calm - N/A   Clear
5:36 AM 42.8 °F 41.0 °F 93% 30.08 in 1.8 mi Calm Calm - N/A   Clear
5:46 AM 42.8 °F 42.8 °F 100% 30.08 in 4.0 mi Calm Calm - N/A   Clear
5:58 AM 43.0 °F 42.1 °F 97% 30.08 in 9.0 mi Calm Calm - N/A   Clear
6:58 AM 44.1 °F 43.0 °F 96% 30.11 in 9.0 mi Calm Calm - N/A   Clear
7:58 AM 48.0 °F 46.9 °F 96% 30.14 in 10.0 mi Calm Calm - 0.00 in Rain Light Rain
8:58 AM 57.0 °F 53.1 °F 87% 30.13 in 10.0 mi SSW 6.9 mph - 0.00 in   Clear
9:58 AM 64.0 °F 53.1 °F 67% 30.13 in 10.0 mi South 10.4 mph - N/A   Clear
10:58 AM 66.9 °F 52.0 °F 59% 30.12 in 10.0 mi SSW 5.8 mph - N/A   Partly Cloudy
11:58 AM 70.0 °F 50.0 °F 49% 30.11 in 10.0 mi SSW 10.4 mph 17.3 mph N/A   Partly Cloudy
12:58 PM 73.0 °F 50.0 °F 44% 30.09 in 10.0 mi South 13.8 mph 20.7 mph N/A   Scattered Clouds
1:58 PM 73.0 °F 50.0 °F 44% 30.06 in 10.0 mi South 15.0 mph 18.4 mph N/A   Mostly Cloudy
2:58 PM 73.9 °F 50.0 °F 43% 30.04 in 10.0 mi South 12.7 mph - N/A   Mostly Cloudy
3:58 PM 75.0 °F 51.1 °F 43% 30.02 in 10.0 mi South 11.5 mph 18.4 mph N/A   Mostly Cloudy
4:58 PM 72.0 °F 51.1 °F 48% 30.02 in 10.0 mi South 11.5 mph - N/A   Mostly Cloudy
5:58 PM 72.0 °F 52.0 °F 49% 30.01 in 9.0 mi South 6.9 mph - N/A   Mostly Cloudy
6:58 PM 70.0 °F 53.1 °F 55% 30.00 in 10.0 mi SE 5.8 mph - N/A   Scattered Clouds
7:58 PM 63.0 °F 54.0 °F 72% 30.00 in 10.0 mi Calm Calm - N/A   Clear
8:58 PM 57.9 °F 54.0 °F 87% 30.01 in 10.0 mi Calm Calm - N/A   Clear
9:58 PM 55.9 °F 53.1 °F 90% 30.02 in 10.0 mi Calm Calm - N/A   Clear
10:58 PM 53.1 °F 51.1 °F 93% 30.02 in 10.0 mi SW 3.5 mph - N/A   Clear
11:58 PM 57.0 °F 53.1 °F 87% 30.02 in 10.0 mi SW 6.9 mph - N/A   Clear